Tucson Davis Monthan, AZ

8:31 PM MST on June 24, 2018 (GMT -0700)
Davis-Monthan Air Force Base

Weather History for KDMA - December, 2017

Change the Weather History Date:

Friday, December 8, 2017

  Actual Average Record
Temperature  
Mean Temperature 48 °F -  
Max Temperature 62 °F 65 °F 83 °F (1981)
Min Temperature 33 °F 39 °F 20 °F (1978)
Degree Days  
Heating Degree Days 18    
Moisture  
Dew Point 15 °F    
Average Humidity 31    
Maximum Humidity 50    
Minimum Humidity 14    
Precipitation  
Precipitation 0.00 in - - ()
Sea Level Pressure  
Sea Level Pressure 30.29 in    
Wind  
Wind Speed 3 mph (East)    
Max Wind Speed 8 mph    
Max Gust Speed -    
Visibility 10 miles    
Events      
Averages and records for this station are not official NWS values.
T = Trace of Precipitation, MM = Missing Value Source: NWS Daily Summary

Daily Weather History Graph

Daily Weather History Graph

Search for Another Location

Airport or City:

Astronomy

Dec. 08, 2017 Rise Set
Actual Time 7:12 AM MST 5:18 PM MST
Civil Twilight 6:45 AM MST 5:45 PM MST
Nautical Twilight 6:14 AM MST 6:16 PM MST
Astronomical Twilight 5:45 AM MST 6:45 PM MST
Moon 11:06 PM MST (12/8) 11:45 AM MST (12/8)
Length of Visible Light 11h 00m
Length of Day
10h 06m
Waning Gibbous, 67% of the Moon is Illuminated
Dec 8
Waning Gibbous
Dec 10
Last Quarter
Dec 17
New
Dec 26
First Quarter
Jan 1
Full

Hourly Weather History & Observations

Time (MST) Temp. Windchill Dew Point Humidity Pressure Visibility Wind Dir Wind Speed Gust Speed Precip Events Conditions
12:58 AM 41.4 °F - 18.9 °F 41% 30.30 in 10.0 mi Calm Calm - N/A   Clear
1:58 AM 38.7 °F 36.3 °F 17.1 °F 42% 30.30 in 10.0 mi WSW 3.5 mph - N/A   Clear
2:58 AM 40.6 °F 36.0 °F 19.4 °F 43% 30.30 in 10.0 mi SE 6.9 mph - N/A   Clear
3:58 AM 38.1 °F 32.3 °F 17.6 °F 44% 30.31 in 10.0 mi ESE 8.1 mph - N/A   Clear
4:58 AM 35.4 °F 29.7 °F 16.2 °F 46% 30.30 in 10.0 mi South 6.9 mph - N/A   Clear
5:58 AM 34.9 °F 32.0 °F 16.7 °F 48% 30.32 in 10.0 mi East 3.5 mph - N/A   Clear
6:58 AM 33.8 °F 30.8 °F 15.6 °F 47% 30.35 in 10.0 mi SE 3.5 mph - N/A   Clear
7:58 AM 34.3 °F 30.2 °F 17.6 °F 50% 30.37 in 10.0 mi ENE 4.6 mph - N/A   Clear
8:58 AM 41.0 °F 39.0 °F 20.7 °F 44% 30.37 in 10.0 mi ENE 3.5 mph - N/A   Clear
9:58 AM 45.9 °F - 21.0 °F 37% 30.38 in 10.0 mi Calm Calm - N/A   Clear
10:58 AM 49.8 °F - 18.0 °F 28% 30.35 in 10.0 mi Calm Calm - N/A   Clear
11:58 AM 54.0 °F - 14.9 °F 21% 30.32 in 10.0 mi Calm Calm - N/A   Clear
12:58 PM 58.5 °F - 15.1 °F 18% 30.28 in 10.0 mi Calm Calm - N/A   Clear
1:58 PM 60.8 °F - 15.6 °F 17% 30.25 in 10.0 mi NNE 3.5 mph - N/A   Clear
2:58 PM 62.6 °F - 14.4 °F 15% 30.22 in 10.0 mi NNE 4.6 mph - N/A   Clear
3:58 PM 62.8 °F - 12.9 °F 14% 30.21 in 10.0 mi Calm Calm - N/A   Clear
4:58 PM 60.1 °F - 12.2 °F 15% 30.22 in 10.0 mi WNW 4.6 mph - N/A   Clear
5:58 PM 54.0 °F - 11.3 °F 18% 30.25 in 10.0 mi WNW 3.5 mph - N/A   Clear
6:58 PM 51.6 °F - 11.8 °F 20% 30.26 in 10.0 mi Calm Calm - N/A   Clear
7:58 PM 49.5 °F - 12.2 °F 22% 30.27 in 10.0 mi East 6.9 mph - N/A   Clear
8:58 PM 45.7 °F - 10.9 °F 24% 30.27 in 10.0 mi Calm Calm - N/A   Clear
9:58 PM 43.5 °F 40.9 °F 10.0 °F 26% 30.28 in 10.0 mi SE 4.6 mph - N/A   Clear
10:58 PM 41.0 °F 37.1 °F 9.5 °F 27% 30.28 in 10.0 mi ESE 5.8 mph - N/A   Clear
11:58 PM 39.4 °F 37.2 °F 9.0 °F 29% 30.28 in 10.0 mi SSW 3.5 mph - N/A   Clear